Wind_Speed
25 27 29 31 32 33 33 29 27 25 22 20 19 17 16 15 15 14 13 12 12 13 12 11 11 10 8 7 8 10 11 10 10 10 9 8 7 7 7 6 5 5 5 6 8 9 10 10 10 12 14 14 13 12 11 9 8 8 7 7 7 6 6 8 11 10 8 9 9 10 12 11 11 12 11 8 6 7 8 7 6 7 7 7 7
24 27 29 31 33 35 32 28 28 25 23 21 20 18 16 16 16 15 12 12 12 12 12 11 11 10 9 8 8 10 11 11 11 10 10 10 9 8 7 7 6 6 6 7 8 8 10 11 12 13 13 13 12 10 10 9 8 8 8 7 7 5 3 6 11 11 9 9 9 10 11 11 11 11 11 10 6 8 10 9 7 7 8 8 8
24 26 29 31 33 34 31 29 29 26 22 22 20 18 17 16 16 15 13 13 12 12 11 12 11 10 10 9 9 10 11 11 11 11 11 11 10 9 9 8 8 7 8 8 9 9 11 12 13 13 12 11 10 9 8 8 7 7 7 6 6 6 3 4 9 11 11 10 10 11 11 11 11 11 12 11 8 7 12 12 9 7 9 10 10
25 25 28 31 32 32 30 30 30 26 23 22 21 19 17 16 15 14 13 12 12 12 11 11 11 11 10 9 9 11 11 11 11 11 11 10 10 10 10 9 9 8 8 9 10 10 11 12 12 12 12 10 9 9 8 7 6 6 6 5 6 6 4 4 7 9 10 10 10 11 11 11 10 11 12 12 10 8 11 13 11 9 10 11 11
24 24 28 32 32 31 32 31 29 27 24 22 22 20 17 16 14 14 14 13 12 12 12 12 11 11 10 10 10 11 11 11 11 10 10 10 9 10 10 10 10 9 8 9 10 10 10 11 10 11 11 10 9 8 7 7 5 5 6 6 5 6 5 5 6 7 8 9 9 10 11 10 10 11 13 14 12 11 12 13 13 12 12 12 13
22 25 31 34 31 29 30 28 25 25 23 22 22 19 17 16 14 13 13 13 12 12 12 12 11 11 11 10 10 10 11 11 11 10 10 9 9 9 10 11 10 9 9 9 9 10 9 10 10 9 9 8 8 7 7 7 5 4 5 6 6 7 6 5 6 7 8 9 10 11 11 11 11 11 12 14 13 12 12 13 13 13 13 13 14
21 26 32 34 30 27 28 27 24 23 22 21 21 19 18 18 15 13 12 12 12 11 11 12 12 11 10 10 10 10 11 11 10 10 10 10 10 10 10 11 10 10 10 9 9 9 9 9 9 8 7 7 7 7 6 6 5 3 5 6 4 4 5 5 6 7 8 9 11 11 11 12 12 11 12 13 13 13 12 12 13 14 14 14 16
20 28 32 31 28 27 27 27 25 23 22 20 19 19 18 17 15 12 12 12 11 10 11 11 11 10 10 10 10 10 10 11 11 11 10 10 10 10 10 10 10 10 9 8 9 9 8 8 8 7 8 9 9 8 7 6 5 3 4 5 3 3 4 5 5 6 7 8 9 11 11 12 14 13 13 13 14 15 15 14 14 15 15 16 17
19 26 31 31 28 25 26 27 26 24 22 20 19 19 18 17 15 13 12 12 11 10 10 11 10 10 10 10 10 11 13 14 15 15 13 12 10 10 10 9 9 9 9 8 8 8 7 8 8 10 11 12 11 9 8 8 8 6 5 5 4 4 4 5 6 6 7 8 9 10 12 13 15 15 14 15 16 16 16 16 16 17 17 17 18
20 22 24 26 25 24 26 27 26 24 21 19 20 20 18 17 16 14 12 11 10 9 9 10 9 8 9 10 12 14 16 17 17 17 16 14 12 10 9 9 9 8 8 7 7 7 7 7 10 12 12 11 10 9 9 9 10 10 9 7 7 6 5 6 6 7 8 9 9 10 12 13 14 14 15 16 16 16 16 17 18 19 18 18 20
22 19 18 19 20 20 23 25 25 23 21 19 19 19 18 17 16 15 14 12 11 10 9 10 10 9 11 13 15 17 17 17 19 19 18 16 14 12 10 9 8 8 7 7 7 7 7 7 8 10 10 10 10 10 10 10 11 12 12 11 10 10 9 8 7 8 8 9 10 10 11 13 13 13 14 15 16 17 18 18 19 20 20 21 22
21 18 18 20 19 19 20 23 24 22 20 20 20 20 20 19 18 18 17 15 13 11 10 13 15 16 16 17 16 17 17 17 19 20 19 18 16 13 9 7 7 7 7 7 7 6 7 7 7 8 9 11 10 10 11 12 12 13 14 14 13 12 12 12 11 10 10 11 12 12 12 13 13 13 14 14 15 16 17 19 20 20 21 22 23
20 19 20 21 21 20 20 22 25 23 22 22 20 20 22 22 20 18 16 14 13 11 10 13 16 17 16 14 13 14 15 16 17 19 19 18 16 13 9 5 6 7 6 7 7 7 7 8 8 8 9 11 11 10 10 12 14 15 15 15 15 14 14 14 14 14 14 14 15 15 14 14 14 14 14 14 15 15 16 18 19 21 22 23 24
22 23 23 22 21 20 20 21 23 24 24 23 20 20 21 20 19 17 14 13 13 12 11 11 13 13 12 10 9 10 10 12 14 15 15 14 13 12 9 7 6 6 6 7 8 8 7 8 9 10 10 12 13 13 12 13 14 16 17 17 16 16 16 16 17 17 17 18 19 20 19 17 17 16 15 16 17 17 18 18 19 21 22 23 26
23 23 23 23 22 20 19 19 20 21 21 20 19 19 19 17 14 12 11 12 12 12 11 11 11 9 8 7 7 8 9 9 10 10 10 11 10 10 10 11 9 8 7 8 9 9 10 10 11 12 14 14 14 14 16 17 17 17 17 17 17 17 18 18 19 20 20 20 20 22 22 21 21 21 19 18 18 18 18 19 19 21 21 24 27
18 18 19 21 21 19 17 17 18 19 19 18 16 15 17 16 11 9 10 12 13 13 12 12 12 10 9 9 9 9 9 9 8 8 8 8 8 10 12 12 10 8 8 9 9 9 10 11 11 12 16 19 19 18 18 19 20 19 19 19 19 19 18 18 19 21 22 21 21 22 23 24 24 24 23 23 22 21 21 20 19 20 20 23 25
16 16 16 16 17 17 16 16 17 16 15 16 16 16 17 16 14 13 12 12 12 13 13 13 13 13 12 12 11 10 11 11 12 12 12 12 12 14 15 13 10 9 9 9 10 11 11 14 15 15 17 19 21 21 21 21 23 23 23 23 24 23 21 19 20 22 22 22 21 22 23 24 25 25 26 26 26 27 27 27 26 23 21 21 22
18 16 16 15 15 15 15 15 16 15 14 15 15 15 14 14 13 13 12 11 11 13 14 14 14 14 14 13 11 11 13 14 16 18 19 18 18 18 16 11 10 11 10 9 11 13 14 17 19 19 19 20 21 22 22 22 23 22 22 23 23 22 20 18 20 22 22 22 23 22 22 23 24 25 25 26 27 29 30 31 31 28 25 24 23
20 19 18 17 16 16 15 15 15 16 16 15 14 13 12 11 11 11 10 10 11 13 15 15 15 15 14 13 12 13 15 16 17 18 20 20 19 18 16 12 12 13 13 11 11 12 12 15 18 19 19 19 19 19 19 19 19 19 19 19 19 19 18 18 19 20 19 20 22 24 24 24 24 26 26 26 27 28 29 31 31 30 28 26 24
20 19 19 19 18 17 16 16 15 15 15 14 13 12 11 10 10 9 9 9 10 11 12 12 12 12 11 10 10 11 12 12 13 14 16 17 17 17 17 17 15 15 15 15 16 15 12 13 17 19 18 17 17 17 17 17 19 20 20 21 21 21 21 22 22 22 21 20 20 22 24 23 24 27 28 27 27 28 29 30 31 32 31 27 24
18 18 18 18 17 17 16 16 16 15 14 13 12 11 10 9 9 9 9 8 8 8 8 8 7 7 7 8 8 8 8 9 11 12 14 15 16 16 17 17 14 14 16 17 17 17 16 17 19 20 19 19 18 19 20 21 23 24 25 25 26 26 27 27 27 27 27 26 25 24 24 23 23 26 27 23 23 26 28 28 29 31 32 28 25
16 16 16 16 16 15 14 14 14 15 14 13 12 11 10 9 9 9 8 8 7 6 6 6 6 6 6 7 7 7 7 8 10 11 12 12 13 15 17 16 13 14 18 19 19 20 19 21 24 25 24 24 25 26 27 27 28 29 29 29 30 30 30 31 31 30 31 31 30 26 23 22 22 24 24 23 23 25 27 28 28 29 30 29 27
14 14 14 14 14 13 12 12 11 11 11 11 10 9 9 8 7 7 6 4 3 4 4 4 5 5 6 7 8 9 10 11 11 13 15 16 16 18 20 19 17 17 19 21 22 21 19 20 26 29 28 27 28 29 30 31 32 32 32 32 32 32 33 33 34 33 33 33 33 31 28 27 26 26 27 27 25 25 25 26 26 26 26 27 27
11 12 12 11 11 10 10 9 9 9 8 8 7 7 6 5 4 4 4 3 2 1 1 1 2 2 2 4 7 10 11 12 13 14 16 18 19 20 21 21 20 20 20 19 20 20 20 21 26 27 26 26 26 27 27 28 29 30 30 30 30 31 32 32 33 33 33 33 33 33 33 33 32 30 28 26 25 24 24 24 26 25 24 25 26
11 11 11 10 10 10 9 7 6 7 6 6 6 6 5 5 3 3 3 3 3 2 1 1 1 0 0 0 2 6 9 11 11 13 14 15 16 16 16 17 18 18 18 18 19 20 21 22 23 23 23 24 24 24 24 24 25 25 25 25 25 26 27 28 29 29 30 31 30 30 30 29 30 30 29 28 28 28 25 24 25 26 25 26 26
12 12 12 11 10 9 9 8 7 7 6 6 6 6 6 6 5 5 4 3 3 3 2 2 2 1 1 1 1 2 5 5 6 10 12 12 12 14 14 14 15 14 14 16 18 19 20 20 20 21 21 22 22 22 23 22 22 23 22 21 21 21 22 22 22 22 24 24 24 25 25 25 27 29 29 29 30 30 27 25 27 28 28 27 27
13 13 12 12 11 10 10 10 9 8 8 8 6 6 7 6 5 5 5 4 4 4 3 3 3 2 2 2 1 1 2 1 5 9 12 11 10 12 12 12 13 13 12 14 18 20 21 21 21 21 20 20 20 19 19 18 18 18 17 16 16 16 17 18 18 19 21 21 20 20 21 23 25 27 27 27 29 30 28 26 26 27 26 25 23
12 12 12 11 12 11 10 10 10 9 8 8 7 6 6 5 4 3 3 3 4 4 4 3 4 4 3 1 1 3 1 6 10 11 11 9 9 10 10 11 12 12 13 15 16 18 19 19 19 18 16 16 15 15 14 14 14 13 12 13 14 15 17 19 20 19 18 20 21 20 20 23 26 26 26 28 28 27 25 23 23 24 22 19 18
11 11 11 10 11 11 10 10 10 10 9 8 8 7 7 5 5 4 4 3 2 2 2 2 3 4 3 3 4 4 4 9 10 9 9 9 9 10 10 10 10 10 11 12 12 13 13 13 12 11 11 11 11 10 10 10 10 10 10 12 13 14 15 17 18 17 16 17 19 19 19 21 20 18 20 24 24 21 20 21 23 24 21 19 17
10 10 9 9 10 10 10 10 10 10 9 8 8 9 9 8 7 7 6 5 4 3 2 2 1 1 2 3 4 4 6 7 7 7 8 9 9 9 9 9 9 9 10 11 11 12 11 11 10 9 9 9 9 9 9 9 10 11 11 12 12 13 14 16 18 20 20 18 18 18 17 17 14 13 16 21 22 21 21 22 25 24 21 19 17
8 9 9 9 11 10 8 8 9 8 7 7 7 8 9 9 9 9 8 7 6 6 5 4 4 3 1 0 1 2 3 4 5 6 6 7 7 8 9 9 9 10 10 10 11 10 10 10 9 8 8 8 8 9 9 10 11 11 12 12 12 12 14 15 16 19 22 22 19 18 19 19 20 20 22 23 24 23 22 21 21 20 17 13 10
8 8 8 9 10 9 7 7 7 6 6 6 5 4 5 7 8 8 8 8 7 6 6 6 5 5 5 4 4 3 3 3 3 3 4 5 5 7 8 9 9 10 10 9 8 9 8 8 8 8 8 9 9 10 10 10 11 11 11 12 12 12 15 17 15 17 22 23 20 17 16 18 21 23 22 22 23 21 19 18 18 15 12 10 8
8 7 5 6 8 7 6 7 6 5 5 5 5 4 3 3 4 6 8 10 9 8 7 6 6 7 7 6 6 6 5 4 4 4 4 5 6 7 8 9 9 9 7 6 8 9 8 8 8 8 9 10 10 11 10 9 10 11 11 12 12 12 16 17 15 18 23 24 20 16 12 12 17 19 19 19 19 18 17 16 14 12 10 8 8
9 8 6 8 6 6 5 5 5 4 4 4 4 4 4 3 3 3 5 8 10 10 10 9 8 8 8 7 6 6 5 4 5 5 6 7 7 8 9 10 10 9 7 6 7 7 7 8 8 9 9 10 10 10 10 10 10 11 12 12 11 12 14 14 16 20 23 20 16 13 11 10 11 13 14 14 14 13 12 11 9 6 4 4 4
9 10 9 8 6 4 4 4 3 3 3 3 3 3 3 2 3 2 2 3 5 6 9 10 11 12 10 8 7 7 7 7 7 8 8 8 8 8 8 8 8 8 8 7 6 6 6 7 8 8 8 8 9 9 9 10 10 10 11 12 12 12 11 12 15 18 16 12 8 7 5 5 7 9 10 10 8 5 4 4 2 1 2 2 3
5 6 7 7 5 3 3 4 3 2 3 3 3 2 2 2 2 2 2 2 2 3 5 6 10 14 13 9 9 9 9 9 9 9 8 9 9 8 8 9 8 8 8 8 8 8 7 7 8 8 8 8 8 8 9 10 9 10 11 11 12 12 10 10 11 10 8 5 4 5 7 8 8 6 4 4 4 4 3 3 2 3 5 5 4
3 4 5 4 3 4 3 3 4 5 7 6 3 1 1 2 2 1 2 2 2 3 3 3 5 9 10 10 11 12 12 10 9 9 9 9 9 9 10 11 10 10 10 10 11 10 9 8 8 8 8 8 8 8 9 9 9 9 9 9 10 10 9 8 7 4 3 5 8 11 10 9 8 8 7 6 5 3 3 4 3 3 3 1 2
3 6 8 4 1 2 3 2 3 6 6 4 2 1 1 2 2 2 2 3 3 4 3 3 4 5 5 6 9 11 12 11 9 10 10 10 10 10 11 11 11 11 11 11 11 10 9 10 9 8 7 7 7 8 8 8 8 8 6 6 7 6 4 3 2 5 6 7 10 10 8 7 8 8 7 5 4 1 1 2 2 5 8 6 3
4 9 13 7 1 3 2 2 2 4 3 1 1 2 3 2 2 2 2 3 4 3 3 4 4 4 4 5 6 7 9 11 10 9 10 10 10 11 10 10 11 12 12 11 11 10 9 9 9 8 7 7 7 6 6 7 7 6 4 3 2 4 4 2 3 6 7 8 10 9 6 5 6 5 4 3 3 4 4 3 2 3 5 4 1
4 8 13 11 4 0 1 2 2 2 1 1 1 2 2 3 3 3 2 3 3 3 4 4 4 4 4 5 5 8 9 10 9 9 9 10 10 10 10 11 12 14 14 13 12 11 9 8 8 8 7 7 6 3 3 4 5 3 3 3 5 7 7 7 7 8 8 9 8 7 5 6 7 7 6 5 5 5 4 2 1 2 1 2 2
3 7 11 12 8 2 1 2 2 1 0 1 1 2 2 3 3 3 2 3 3 3 4 4 5 5 5 5 6 8 9 7 7 7 8 8 9 9 10 10 12 15 16 15 12 10 9 8 7 7 6 6 4 1 3 4 6 6 7 8 8 9 9 8 8 7 6 6 5 5 6 6 6 6 6 5 5 4 1 1 1 1 2 2 2
4 5 6 8 8 4 2 3 3 2 0 0 1 2 2 2 2 2 2 3 3 3 3 4 4 4 6 7 8 8 8 6 6 7 7 7 8 9 10 9 10 13 17 16 13 10 8 8 8 8 8 7 6 6 6 8 8 8 8 9 9 9 8 7 7 6 5 5 5 6 6 6 5 5 6 6 5 3 1 1 2 4 4 3 3
4 3 3 4 5 4 2 3 3 2 2 2 3 3 2 2 2 2 2 2 3 3 3 3 2 2 6 9 10 9 7 6 7 7 7 8 8 8 9 9 9 11 14 16 14 10 8 8 9 10 9 9 9 9 8 9 9 9 8 7 7 6 7 7 7 6 5 4 4 4 5 5 6 7 7 6 4 4 2 1 2 4 4 5 5
4 4 4 4 4 3 3 2 2 3 5 6 5 3 2 2 2 2 2 2 2 2 2 2 2 2 4 7 8 7 6 7 8 8 8 9 9 9 9 10 11 11 13 14 13 12 10 8 8 9 9 9 9 10 9 8 7 7 7 6 6 6 6 6 5 4 3 3 2 3 4 5 5 5 6 6 5 4 4 4 3 4 5 5 4
4 4 4 4 3 3 3 3 3 2 3 4 4 2 2 3 2 2 2 3 2 2 3 2 3 3 3 4 5 5 6 6 7 7 7 7 8 8 9 9 10 10 11 11 12 12 11 9 9 8 8 9 9 9 9 7 6 5 5 6 6 5 4 3 3 3 2 3 4 4 4 5 4 2 5 6 4 3 2 3 3 3 4 5 5
4 4 4 4 3 3 3 3 2 2 2 2 3 3 3 3 3 3 3 3 3 3 3 3 3 3 3 4 4 5 5 5 5 5 5 5 5 5 6 7 8 8 8 8 9 9 9 9 8 7 8 9 8 8 8 7 6 5 5 4 3 2 2 2 3 4 5 7 8 7 6 7 6 2 4 5 5 4 3 3 5 4 4 5 5
5 5 4 4 4 3 3 2 2 3 2 2 3 4 4 3 4 3 3 4 5 4 4 4 4 3 3 4 3 4 4 4 4 5 5 4 4 4 5 5 6 7 7 6 6 6 6 6 6 6 7 8 7 7 7 6 5 5 4 3 2 2 1 2 4 5 5 6 6 3 3 5 6 4 3 5 6 6 5 5 6 5 5 5 5
6 5 5 5 4 4 3 2 2 3 3 3 3 4 5 4 4 4 4 4 5 5 4 4 4 3 3 3 3 3 3 4 4 4 4 4 4 4 5 5 5 6 7 6 6 5 4 4 3 4 4 5 5 4 4 4 3 2 2 2 2 3 3 2 3 5 5 5 5 4 3 3 2 2 3 4 4 4 5 6 6 5 5 5 5
7 6 6 6 5 5 5 4 3 2 3 4 4 4 5 5 5 5 5 5 5 5 4 4 4 3 2 3 2 2 3 3 3 3 3 2 3 4 5 5 5 5 5 5 6 6 6 5 4 3 3 2 2 2 2 2 2 2 2 3 2 3 3 3 3 5 6 6 6 5 4 2 2 4 7 7 5 4 4 5 5 5 5 5 5
8 7 7 7 6 6 6 5 5 4 4 5 5 5 6 6 6 6 5 5 5 5 5 4 4 3 3 2 2 1 2 2 2 2 1 1 1 2 3 4 4 4 4 4 5 6 6 6 6 6 6 5 4 4 4 4 4 4 4 4 4 4 4 4 4 5 5 6 5 3 3 3 3 4 4 5 4 5 5 6 5 5 5 5 5
9 8 8 8 8 8 7 6 6 6 6 6 6 6 6 6 6 6 6 6 6 5 5 5 4 4 3 3 2 1 1 1 2 1 0 1 1 1 1 2 3 3 3 3 3 4 5 6 6 6 6 6 6 6 6 6 6 6 5 5 5 4 4 4 4 4 4 4 4 3 4 5 5 4 4 4 4 5 6 7 6 6 6 6 6
Wind_Direction
181 181 179 180 179 176 176 175 174 174 175 181 181 176 176 178 178 178 178 177 176 172 170 170 169 169 170 169 169 168 168 167 161 159 161 156 156 157 150 150 147 143 155 157 158 162 155 153 162 159 153 150 145 141 138 138 137 134 133 135 141 148 148 147 146 148 160 167 165 170 176 174 173 179 192 209 206 186 198 215 214 222 239 240 235
182 179 178 180 178 174 175 175 175 176 177 181 182 177 177 183 183 178 177 180 176 172 173 172 170 170 168 168 169 169 169 167 164 163 163 161 159 157 155 158 152 142 144 144 144 149 146 145 147 146 145 144 141 142 144 143 143 141 137 138 147 159 162 147 150 156 165 173 175 178 183 183 182 186 199 223 229 187 195 225 233 226 238 247 252
180 178 178 179 177 174 174 173 176 178 178 181 182 178 180 186 183 177 178 183 178 174 176 173 170 171 170 169 170 170 170 170 168 166 167 165 161 160 162 161 155 146 144 145 142 141 142 142 143 143 143 142 141 146 153 157 158 152 147 148 154 165 174 153 159 167 173 179 183 186 189 190 191 195 203 225 247 203 196 227 250 237 223 228 247
178 178 179 177 175 175 173 173 177 178 177 180 180 177 180 183 179 176 179 181 178 177 178 174 172 172 170 169 168 169 172 172 171 171 171 169 169 170 168 164 160 151 146 150 148 143 143 143 144 146 144 142 146 153 160 167 167 161 163 163 164 176 188 184 182 180 177 183 192 196 195 195 200 204 203 215 237 223 202 219 237 232 221 220 233
176 175 178 176 174 175 174 174 176 174 173 179 179 175 176 176 174 177 179 179 178 178 177 173 173 173 170 170 169 169 173 174 173 173 173 171 172 174 171 167 164 157 152 152 151 149 148 147 148 149 148 146 150 156 163 170 169 167 175 178 176 183 190 195 202 202 193 195 203 204 202 201 207 213 209 209 219 220 213 218 223 223 224 224 228
173 171 177 178 177 178 177 176 174 170 170 178 178 171 170 170 169 174 178 178 179 179 176 173 173 173 172 170 169 170 173 174 174 174 174 171 168 168 168 167 165 161 156 150 151 154 152 152 154 154 154 153 157 161 165 173 175 175 194 200 188 183 190 199 205 209 210 207 205 208 212 212 213 218 216 214 219 222 221 225 228 228 227 226 234
171 175 181 181 178 178 177 176 175 172 171 175 175 170 171 170 165 165 170 174 177 177 175 174 172 172 172 170 171 171 170 172 174 173 172 168 164 163 165 165 164 162 159 155 157 157 155 159 160 158 162 167 170 172 170 178 185 185 201 207 190 173 186 200 208 211 214 213 209 213 218 215 216 222 224 224 227 229 231 235 238 235 233 234 240
160 174 181 181 180 179 178 177 175 173 173 173 173 174 177 173 163 161 164 168 173 175 177 176 169 168 171 169 169 168 165 170 173 171 171 170 165 164 163 163 164 162 161 162 161 158 161 165 162 166 178 180 177 176 175 178 181 189 206 209 208 207 204 210 218 217 217 219 218 220 221 219 223 229 232 234 234 233 237 243 245 242 243 243 241
159 174 180 182 181 180 180 178 174 173 174 172 172 174 176 171 161 159 162 161 164 171 176 174 167 166 168 165 163 166 170 176 175 170 170 169 166 166 165 166 169 166 163 165 164 160 163 167 174 188 195 194 191 192 191 183 176 178 190 199 211 225 230 230 230 229 230 233 232 231 230 230 232 233 233 238 240 239 240 244 247 247 249 250 245
164 176 178 178 177 177 178 177 173 171 169 167 169 170 171 169 161 156 157 156 158 165 168 167 166 164 161 162 171 178 181 182 177 172 171 168 167 173 173 171 174 175 175 175 172 172 172 181 199 208 210 210 214 220 218 207 197 191 191 201 208 211 223 236 241 242 243 245 244 242 239 238 239 237 237 240 243 243 243 245 249 251 251 250 249
162 171 166 162 163 168 172 173 172 169 162 161 165 167 168 166 158 155 156 157 155 155 158 162 161 163 172 182 187 186 185 185 180 175 173 170 168 170 175 180 179 179 185 186 187 191 192 203 225 233 232 230 232 235 232 224 218 215 217 225 226 220 219 226 234 242 249 256 255 251 247 246 245 243 243 246 246 245 243 244 250 254 254 252 251
158 163 160 156 154 157 163 170 173 170 162 161 164 167 167 163 161 163 167 167 163 157 164 171 168 168 181 193 195 190 189 191 188 181 176 175 172 163 161 183 193 191 197 199 201 209 208 211 229 240 242 239 236 235 236 234 232 232 236 241 242 239 236 235 238 242 246 253 258 259 258 258 256 252 250 252 254 252 248 246 249 252 253 252 251
150 150 157 162 162 162 166 171 175 174 171 168 167 166 165 165 169 174 175 175 174 170 173 178 177 179 185 193 197 197 195 193 192 189 186 186 185 174 164 180 199 202 211 214 217 225 227 228 230 233 242 245 239 236 242 246 247 246 246 246 246 247 247 248 251 254 253 251 252 255 257 260 263 261 258 258 258 256 251 249 250 251 251 251 251
144 142 146 153 158 164 168 170 174 179 182 182 177 170 168 167 168 170 174 177 176 172 170 173 181 191 198 200 203 204 200 195 195 198 199 199 204 206 204 207 211 215 223 228 233 236 237 241 241 242 247 246 237 236 241 246 252 254 253 254 257 257 257 259 260 260 260 258 257 257 257 259 261 261 259 258 259 258 257 256 253 252 254 254 254
142 140 139 143 149 158 167 170 175 181 182 183 180 174 174 175 169 166 178 184 178 175 175 174 177 186 195 199 200 198 196 195 197 205 210 212 221 232 236 234 234 238 243 242 242 244 245 246 250 255 257 254 251 252 249 245 248 254 256 258 261 260 258 261 264 265 263 263 262 263 263 263 261 260 258 258 259 258 259 259 256 255 257 257 257
133 138 141 145 148 151 158 164 172 177 177 179 180 178 183 194 206 216 220 218 210 204 201 195 190 193 200 203 205 210 210 204 205 214 219 223 241 255 252 248 248 249 251 249 247 250 254 252 253 256 257 259 264 266 260 257 261 266 267 266 268 269 266 264 269 272 271 270 268 267 267 266 264 264 264 264 263 261 261 263 261 260 261 261 261
117 129 138 142 143 143 148 156 164 171 175 177 179 182 190 202 215 223 225 223 218 216 214 210 207 211 217 218 219 229 233 227 226 227 221 227 253 265 257 251 253 251 248 249 249 250 251 250 251 255 258 262 266 268 268 270 272 272 274 276 278 280 278 273 271 272 274 275 274 272 271 269 266 266 268 268 268 266 264 263 260 260 262 261 259
108 116 123 125 125 127 133 142 148 152 156 158 161 168 177 185 191 196 199 200 203 209 211 213 216 219 223 224 224 232 242 243 239 234 230 234 249 256 251 246 246 245 244 250 254 256 258 258 259 264 269 270 271 272 273 274 272 271 275 280 281 281 281 276 273 274 275 275 275 274 272 269 266 265 266 267 268 268 266 263 261 259 258 256 257
107 110 114 115 115 115 119 127 132 135 137 139 141 145 155 166 177 184 190 196 204 207 204 205 209 209 210 214 214 221 234 238 234 230 231 235 241 244 242 239 237 238 241 246 252 258 266 269 267 269 274 274 272 272 273 271 270 271 274 276 276 278 278 274 273 276 277 276 276 275 273 272 269 266 265 265 265 265 265 264 262 257 254 253 255
103 106 109 111 112 113 116 123 126 126 128 130 132 136 145 157 166 173 181 188 196 199 197 197 200 199 202 210 212 215 223 225 222 223 227 233 239 244 248 246 243 247 252 255 258 261 268 275 272 270 270 268 267 268 270 271 272 272 272 272 272 273 274 270 268 269 268 269 271 272 274 274 273 273 273 271 265 262 262 264 263 258 254 251 252
103 103 105 107 109 111 115 120 123 124 126 130 132 136 143 151 153 158 168 175 180 190 195 199 206 209 213 221 226 230 233 233 233 234 237 242 245 250 255 255 255 262 268 268 265 262 264 271 273 272 272 271 271 270 268 268 268 268 270 271 270 272 273 271 270 269 267 267 268 269 270 269 270 275 279 277 270 262 259 260 261 259 254 249 247
107 107 109 111 113 114 118 121 124 126 129 134 136 135 137 140 140 145 156 164 168 178 190 200 211 219 225 229 232 235 237 240 243 243 246 252 256 259 264 265 261 259 262 265 265 264 267 271 271 270 271 271 272 271 268 267 268 268 269 269 269 269 269 268 268 268 267 269 270 269 267 263 264 268 269 268 269 267 261 258 258 258 255 250 247
109 111 113 115 116 119 121 123 126 129 131 136 139 139 140 141 142 150 154 152 164 189 203 215 227 238 248 254 256 253 249 248 251 254 255 258 261 264 268 270 269 264 262 265 269 271 271 269 268 271 272 272 271 272 271 271 272 273 272 271 271 270 270 269 270 269 269 270 269 268 265 263 264 265 264 262 264 266 264 261 260 260 257 253 251
103 104 106 110 111 113 118 123 129 131 132 136 139 141 146 146 149 157 146 122 113 149 210 221 242 263 281 280 279 277 272 265 262 262 262 264 267 269 272 275 278 278 277 277 276 274 270 268 272 277 280 279 277 276 274 273 273 274 274 274 273 273 272 272 272 271 271 270 270 271 270 268 268 267 263 257 252 256 264 265 262 261 258 252 251
98 99 102 105 106 105 104 106 114 119 120 125 127 126 124 118 107 99 101 113 122 111 100 118 140 179 170 36 301 291 291 292 287 278 274 275 277 279 281 282 282 283 285 283 281 278 278 279 283 285 285 284 284 283 282 281 280 280 280 280 280 279 278 277 277 277 275 274 274 275 275 274 272 265 257 251 246 250 263 267 259 255 253 249 245
82 86 90 93 96 102 104 101 99 101 102 101 104 111 107 98 96 95 85 78 82 77 67 74 75 63 72 97 107 299 317 331 312 289 287 290 292 292 294 294 293 294 293 288 286 286 288 290 292 292 292 292 292 291 290 289 290 290 291 290 290 290 287 283 280 280 280 280 279 278 276 274 269 261 257 254 249 250 262 266 256 252 253 250 242
63 65 70 75 78 82 89 93 94 97 101 99 100 110 108 102 111 130 132 128 119 97 81 87 104 104 78 65 77 33 32 171 233 276 295 303 302 301 304 305 305 307 305 299 298 301 304 304 304 303 303 303 304 305 306 308 309 311 309 307 310 312 305 295 288 280 274 272 272 276 275 269 263 261 262 260 254 256 267 269 258 253 254 249 241
61 60 61 66 70 72 75 81 83 82 83 84 87 95 99 96 99 114 131 145 155 151 139 155 185 168 135 118 134 108 152 243 256 283 303 308 307 310 312 310 308 307 304 300 301 306 307 307 309 313 318 319 318 317 319 319 319 319 312 303 305 306 300 299 299 292 281 274 271 270 271 270 267 266 265 261 257 260 268 264 252 247 244 238 234
53 57 58 61 64 64 68 75 78 76 74 73 75 80 81 79 76 73 76 88 112 165 174 205 225 198 181 219 206 181 226 262 278 299 307 306 310 313 312 312 314 314 314 314 317 318 318 321 328 335 335 329 320 314 313 309 305 301 294 290 291 289 286 289 291 286 282 283 277 268 266 270 268 262 258 255 253 255 259 253 245 241 235 228 225
41 43 49 61 63 55 55 63 65 63 65 64 64 70 73 75 76 72 70 74 74 78 91 84 81 179 221 251 241 233 252 271 288 299 302 308 316 319 320 326 328 330 333 335 336 339 345 353 357 347 331 325 323 317 315 312 307 304 301 298 294 290 287 287 284 277 273 273 272 268 265 261 254 249 253 253 251 256 261 252 240 232 224 219 216
42 35 38 61 71 60 51 57 58 54 57 57 53 49 47 49 59 66 69 72 74 74 77 80 79 79 73 301 281 279 286 297 303 305 311 320 323 325 328 328 326 329 332 330 335 350 1 356 343 330 323 323 323 317 315 315 310 308 307 304 300 298 294 289 285 283 281 278 275 272 264 255 253 258 262 258 255 258 256 241 225 216 213 211 212
50 39 31 46 60 58 52 54 57 58 57 56 59 52 29 20 23 34 46 55 58 61 65 71 74 68 61 57 50 38 27 18 2 349 346 342 335 332 332 328 328 330 327 324 341 4 3 338 327 328 327 325 322 318 318 317 313 312 312 308 306 303 296 287 282 284 287 290 294 291 273 258 259 261 258 250 246 241 230 213 203 203 211 216 216
38 42 57 58 49 48 53 53 52 57 57 53 58 64 56 26 6 1 11 22 28 31 36 46 63 65 57 55 55 50 44 38 29 20 9 358 353 349 343 340 340 341 342 354 5 1 343 328 332 334 330 327 324 319 317 319 319 315 310 307 306 302 294 289 286 285 287 290 297 298 286 269 264 258 248 237 230 221 211 205 204 210 221 220 210
12 26 77 92 65 42 44 49 50 56 57 57 62 56 48 50 43 1 353 8 21 22 15 14 27 38 39 42 46 40 37 33 25 20 15 10 6 0 355 352 353 355 7 23 12 349 334 333 334 330 327 327 323 320 321 321 318 315 313 310 307 303 296 290 287 288 289 289 289 286 282 275 262 247 230 219 213 210 210 213 216 219 222 217 203
7 15 40 62 60 51 48 47 53 70 67 60 73 75 61 54 63 61 31 19 25 25 15 2 353 354 4 22 30 25 24 25 21 18 16 14 10 4 0 2 5 8 13 14 360 349 348 343 331 324 324 322 318 319 322 319 315 316 313 300 287 286 290 290 289 291 294 293 284 274 262 230 211 209 205 196 193 205 220 225 230 203 191 209 201
20 13 17 26 35 49 54 38 29 89 128 110 79 64 66 64 67 64 57 52 46 45 38 7 344 344 354 11 21 20 19 18 14 13 14 13 10 7 8 11 14 15 14 5 355 356 359 348 337 332 328 324 321 318 317 316 316 315 308 294 281 274 271 277 291 302 305 284 228 175 160 162 163 164 162 140 112 92 100 120 169 214 225 227 201
33 21 8 3 14 26 35 33 36 70 104 102 75 32 44 58 60 54 44 51 57 54 57 44 4 0 4 11 17 19 16 13 14 15 14 14 13 10 11 11 8 8 7 359 354 356 355 347 340 335 329 329 331 326 320 318 318 316 314 311 301 287 275 278 288 282 238 201 171 156 154 154 138 117 103 95 93 116 179 205 227 251 269 254 151
342 342 338 318 185 54 21 359 19 43 67 75 56 72 120 82 67 75 57 54 64 65 58 49 34 23 18 20 26 21 11 9 21 23 15 15 16 11 8 10 9 7 7 1 356 358 357 351 349 345 338 331 325 324 331 333 327 321 321 320 318 320 327 321 264 211 195 176 160 154 154 148 133 125 125 125 116 113 265 290 342 4 11 27 74
312 320 332 337 107 106 29 347 359 21 34 53 78 92 99 94 88 86 72 61 65 72 68 45 26 22 34 53 65 50 21 11 20 25 17 17 20 16 12 16 16 13 10 5 359 359 360 357 351 341 328 315 307 318 348 345 321 309 314 325 7 59 70 98 166 169 161 154 156 160 160 152 142 133 126 113 81 61 52 45 22 341 347 8 54
308 314 332 347 13 105 329 355 13 12 24 65 98 93 99 106 95 80 77 82 78 74 70 50 29 30 50 57 65 63 42 17 9 17 22 22 24 23 23 26 26 22 18 11 4 1 359 352 341 330 325 323 317 324 4 348 329 344 44 90 120 122 121 124 130 139 148 155 162 164 151 131 113 99 91 81 71 71 69 49 287 263 308 20 28
319 313 327 348 7 18 323 349 345 300 265 100 128 120 104 106 100 82 77 84 81 80 78 60 39 42 57 52 42 48 45 25 8 18 29 29 29 31 32 30 29 28 26 21 13 9 8 4 357 358 7 11 9 53 89 62 52 66 89 107 115 114 116 118 122 131 140 140 132 119 110 102 96 101 117 116 90 73 43 281 12 33 26 26 18
315 310 317 340 359 8 350 331 324 307 333 78 152 148 125 110 104 97 99 96 91 92 90 75 54 40 44 50 52 51 45 31 21 27 35 34 32 34 35 32 29 29 29 27 22 20 27 35 38 43 57 70 78 93 99 91 86 94 110 114 104 91 84 82 81 83 92 101 108 106 98 89 90 103 114 105 77 35 289 229 49 26 15 15 14
303 308 297 308 324 327 317 316 313 289 249 219 189 157 142 143 120 99 105 109 104 111 109 96 86 35 18 30 43 50 46 39 36 36 40 43 40 38 36 34 32 33 33 31 29 30 38 51 56 62 74 89 93 95 99 105 109 113 115 114 110 101 95 92 91 88 90 102 118 116 107 105 106 105 102 91 59 21 11 53 36 14 17 20 13
275 292 295 300 305 304 305 313 301 268 240 218 197 160 136 151 144 117 124 121 107 116 122 98 89 74 29 28 38 46 46 47 47 44 42 46 49 49 46 42 39 40 40 37 37 38 39 42 50 58 70 85 93 96 99 106 113 114 113 119 124 119 113 112 106 86 70 77 94 101 99 92 85 86 94 95 76 43 42 54 49 31 25 19 9
257 271 279 292 299 294 300 311 300 264 224 195 179 163 158 165 159 146 147 144 131 132 135 114 92 91 77 58 55 52 47 48 50 48 43 43 46 49 49 45 42 42 42 42 42 46 47 43 40 46 58 69 79 89 98 107 114 112 113 125 129 118 107 95 62 39 53 80 73 69 76 69 53 77 111 96 65 38 61 62 47 39 30 17 8
245 258 266 274 279 284 300 312 288 235 189 172 178 181 177 172 167 161 161 161 155 145 135 126 114 102 88 74 63 59 55 50 49 48 46 43 42 43 44 42 38 37 40 42 43 48 54 56 52 55 66 73 78 87 98 108 114 110 106 110 111 105 107 85 50 39 52 60 49 35 28 24 15 35 118 88 36 20 57 43 17 19 26 14 1
231 243 258 253 252 266 285 286 251 227 213 209 200 186 178 177 171 167 172 172 162 149 136 130 125 112 99 87 74 66 65 59 50 49 48 42 35 33 36 38 36 34 34 34 35 41 50 59 65 73 81 87 93 102 107 108 107 105 100 90 72 52 50 60 55 53 56 53 46 43 50 36 21 21 65 53 24 14 20 11 359 4 9 359 348
228 233 250 248 242 246 246 243 256 248 216 204 203 193 187 186 177 171 172 165 153 148 144 138 133 123 110 103 91 77 73 66 57 56 51 33 20 25 36 46 54 51 42 35 34 38 40 43 56 74 85 90 97 104 107 103 94 74 52 34 19 10 10 28 65 88 90 72 50 45 63 85 81 25 15 21 21 14 9 3 356 353 352 348 348
227 225 237 242 238 237 236 242 262 249 203 196 202 195 188 187 183 175 171 165 158 156 153 147 145 143 130 123 113 89 76 67 60 61 58 32 13 20 35 51 66 71 65 55 52 53 52 50 51 57 63 65 72 72 63 58 47 28 22 19 14 22 43 57 69 79 82 73 52 27 5 22 77 42 8 357 357 0 355 345 339 339 343 341 340
228 225 234 238 235 233 236 237 237 226 212 208 207 197 191 194 191 182 177 175 173 170 165 159 161 160 147 137 131 103 87 77 67 67 71 36 352 2 26 47 60 69 75 75 72 70 70 69 69 69 68 66 66 68 66 63 61 58 59 61 60 60 69 74 64 55 59 65 63 37 351 358 49 51 6 345 349 352 336 317 306 312 327 332 330
225 221 228 234 232 230 231 231 229 227 221 216 213 207 201 200 197 193 190 188 186 184 182 177 174 174 172 171 165 151 134 120 102 97 171 237 250 301 13 42 57 63 67 74 79 82 83 82 79 77 74 70 67 66 66 65 66 64 64 66 66 60 59 63 61 54 48 43 35 13 345 339 343 336 318 305 286 279 288 298 307 318 322 321 319
Height
1492 1495 1498 1501 1504 1507 1511 1514 1517 1520 1523 1526 1529 1531 1533 1534 1535 1536 1537 1538 1538 1539 1540 1541 1541 1542 1543 1543 1543 1544 1545 1547 1548 1549 1551 1551 1552 1553 1553 1553 1554 1553 1553 1553 1554 1555 1555 1556 1557 1557 1559 1560 1562 1563 1564 1565 1566 1567 1567 1568 1569 1569 1570 1571 1572 1574 1576 1577 1577 1578 1578 1578 1579 1579 1578 1578 1578 1579 1579 1579 1579 1580 1580 1580 1581
1492 1495 1497 1500 1503 1507 1511 1514 1517 1519 1522 1525 1528 1530 1532 1533 1534 1535 1536 1537 1538 1539 1540 1540 1541 1542 1543 1544 1544 1545 1546 1547 1548 1549 1551 1551 1552 1553 1554 1554 1554 1554 1554 1554 1555 1555 1556 1557 1557 1558 1560 1561 1562 1564 1565 1565 1566 1567 1567 1568 1569 1569 1570 1570 1571 1573 1575 1576 1577 1578 1578 1578 1579 1580 1579 1578 1578 1579 1579 1579 1579 1580 1580 1579 1580
1492 1495 1498 1501 1504 1507 1510 1513 1516 1519 1521 1524 1527 1530 1531 1532 1533 1534 1536 1537 1538 1539 1539 1540 1541 1542 1543 1544 1544 1545 1546 1547 1548 1549 1550 1551 1552 1553 1554 1554 1554 1555 1555 1555 1556 1556 1557 1557 1558 1559 1561 1562 1563 1564 1565 1566 1566 1567 1568 1568 1569 1570 1570 1570 1571 1572 1574 1575 1576 1577 1577 1578 1579 1580 1579 1578 1578 1579 1580 1579 1579 1579 1580 1580 1580
1492 1496 1499 1502 1504 1507 1510 1512 1515 1517 1520 1523 1526 1529 1530 1531 1532 1534 1535 1536 1537 1538 1539 1539 1541 1542 1543 1544 1545 1546 1547 1548 1549 1550 1550 1551 1552 1553 1554 1554 1555 1556 1556 1556 1556 1557 1557 1558 1559 1559 1561 1562 1563 1564 1565 1566 1567 1567 1568 1568 1569 1570 1570 1570 1571 1572 1573 1574 1576 1576 1577 1577 1578 1579 1579 1579 1578 1578 1580 1580 1579 1579 1580 1581 1581
1491 1496 1500 1502 1504 1506 1509 1511 1513 1516 1519 1523 1525 1528 1529 1530 1532 1533 1535 1536 1537 1537 1538 1539 1541 1542 1543 1544 1545 1546 1547 1548 1549 1550 1551 1552 1552 1553 1554 1555 1556 1556 1557 1557 1557 1557 1558 1559 1559 1560 1561 1562 1563 1564 1565 1566 1567 1567 1568 1568 1569 1569 1570 1570 1571 1572 1573 1574 1575 1576 1576 1577 1578 1578 1579 1579 1578 1578 1579 1579 1579 1579 1580 1580 1580
1491 1496 1500 1501 1503 1505 1508 1511 1513 1516 1519 1522 1524 1526 1528 1530 1532 1533 1534 1535 1536 1537 1538 1539 1541 1542 1543 1544 1546 1547 1547 1549 1550 1550 1551 1552 1553 1554 1554 1555 1556 1557 1557 1558 1558 1558 1559 1560 1560 1561 1561 1562 1563 1564 1565 1566 1566 1567 1567 1568 1568 1568 1569 1570 1571 1571 1572 1573 1574 1575 1575 1576 1577 1577 1578 1578 1578 1578 1578 1579 1579 1579 1580 1580 1579
1492 1497 1500 1501 1503 1505 1508 1511 1513 1515 1518 1520 1523 1526 1527 1529 1531 1533 1534 1535 1536 1537 1538 1539 1540 1542 1543 1545 1546 1547 1547 1549 1550 1551 1551 1552 1553 1554 1555 1556 1556 1557 1557 1558 1558 1559 1559 1560 1560 1561 1562 1563 1564 1564 1565 1565 1566 1566 1567 1567 1568 1568 1569 1570 1570 1571 1572 1572 1573 1573 1574 1575 1575 1576 1576 1577 1577 1578 1578 1578 1579 1579 1579 1579 1578
1492 1497 1499 1501 1504 1506 1508 1511 1513 1515 1517 1520 1523 1525 1527 1529 1531 1532 1534 1535 1536 1538 1539 1540 1540 1542 1543 1544 1546 1547 1548 1549 1549 1550 1552 1552 1553 1554 1555 1556 1556 1557 1558 1558 1558 1559 1560 1560 1561 1562 1562 1562 1563 1563 1564 1565 1565 1566 1566 1567 1567 1568 1569 1570 1570 1570 1571 1571 1572 1572 1573 1573 1574 1574 1575 1575 1575 1576 1576 1577 1577 1577 1577 1577 1577
1493 1496 1498 1500 1503 1505 1508 1510 1512 1515 1517 1519 1522 1524 1526 1528 1530 1532 1533 1534 1537 1538 1539 1540 1541 1542 1543 1544 1545 1546 1546 1547 1548 1549 1551 1552 1553 1554 1555 1556 1557 1557 1558 1558 1559 1559 1560 1560 1561 1561 1561 1561 1562 1563 1563 1564 1565 1565 1566 1566 1567 1568 1568 1569 1569 1570 1570 1570 1571 1571 1572 1572 1572 1572 1573 1573 1573 1574 1574 1574 1574 1575 1575 1575 1574
1494 1496 1498 1500 1503 1505 1507 1509 1512 1515 1517 1520 1522 1524 1526 1528 1529 1531 1533 1534 1536 1538 1539 1540 1541 1542 1543 1544 1544 1544 1544 1546 1547 1549 1550 1551 1553 1555 1556 1557 1557 1558 1559 1559 1559 1560 1560 1560 1560 1560 1561 1561 1562 1562 1562 1563 1564 1564 1565 1565 1566 1567 1567 1568 1568 1569 1569 1569 1569 1570 1570 1570 1570 1571 1571 1571 1571 1571 1572 1572 1572 1572 1572 1572 1572
1494 1496 1498 1500 1502 1504 1507 1510 1512 1515 1517 1520 1522 1523 1525 1527 1529 1531 1532 1534 1536 1538 1539 1540 1541 1542 1542 1542 1542 1542 1544 1545 1547 1548 1550 1551 1553 1554 1556 1557 1557 1558 1559 1559 1559 1560 1560 1560 1560 1560 1560 1561 1561 1561 1561 1562 1562 1563 1563 1563 1564 1565 1565 1566 1567 1567 1568 1568 1568 1568 1568 1568 1568 1569 1569 1569 1569 1569 1569 1570 1570 1570 1569 1569 1569
1494 1496 1498 1500 1502 1503 1506 1509 1511 1514 1517 1519 1521 1523 1524 1526 1527 1529 1531 1533 1535 1537 1538 1538 1539 1540 1540 1540 1541 1542 1544 1545 1547 1549 1550 1551 1552 1553 1555 1557 1557 1558 1559 1559 1560 1560 1560 1560 1560 1560 1560 1560 1561 1561 1561 1561 1561 1561 1562 1562 1562 1563 1563 1564 1565 1565 1566 1566 1566 1567 1566 1567 1567 1567 1567 1567 1567 1567 1567 1567 1567 1567 1567 1566 1566
1495 1497 1498 1501 1502 1503 1505 1508 1510 1513 1515 1517 1520 1522 1523 1524 1526 1528 1530 1532 1534 1536 1537 1538 1539 1539 1540 1541 1542 1543 1544 1545 1547 1549 1550 1551 1552 1553 1554 1556 1557 1558 1558 1559 1559 1560 1560 1560 1560 1560 1560 1560 1560 1561 1561 1561 1561 1560 1560 1560 1560 1561 1562 1562 1563 1563 1564 1564 1564 1564 1564 1565 1565 1565 1565 1565 1565 1565 1564 1564 1564 1564 1563 1563 1562
1497 1498 1500 1501 1502 1504 1505 1507 1510 1512 1514 1517 1520 1522 1523 1525 1526 1529 1531 1532 1534 1535 1536 1538 1539 1540 1541 1542 1543 1544 1545 1545 1547 1549 1550 1551 1552 1553 1554 1555 1556 1557 1557 1558 1558 1558 1559 1559 1559 1559 1559 1558 1559 1560 1560 1560 1559 1559 1558 1558 1559 1559 1560 1561 1561 1561 1561 1561 1561 1561 1562 1562 1562 1562 1563 1562 1562 1562 1562 1562 1562 1561 1561 1560 1559
1498 1500 1502 1503 1503 1505 1506 1508 1511 1513 1514 1517 1520 1523 1525 1526 1528 1529 1531 1533 1534 1535 1537 1538 1539 1541 1542 1543 1544 1545 1545 1546 1547 1549 1550 1551 1552 1554 1555 1555 1556 1556 1556 1557 1557 1557 1558 1558 1557 1558 1557 1555 1557 1558 1559 1559 1558 1557 1557 1557 1557 1558 1558 1558 1558 1558 1558 1559 1559 1559 1559 1560 1560 1560 1560 1560 1560 1560 1559 1559 1559 1558 1558 1557 1555
1500 1501 1503 1504 1505 1506 1507 1509 1512 1514 1515 1518 1520 1523 1525 1526 1528 1529 1530 1532 1534 1535 1537 1538 1539 1540 1542 1543 1544 1545 1545 1546 1547 1548 1549 1550 1552 1554 1555 1555 1555 1556 1556 1556 1556 1556 1557 1556 1556 1556 1555 1554 1556 1557 1557 1558 1557 1557 1556 1555 1555 1556 1557 1557 1557 1556 1556 1556 1557 1557 1556 1557 1557 1557 1557 1557 1557 1557 1557 1556 1556 1555 1555 1554 1552
1502 1503 1505 1505 1505 1506 1508 1510 1513 1515 1516 1518 1520 1522 1524 1526 1527 1528 1529 1531 1533 1535 1536 1537 1538 1540 1541 1543 1544 1544 1545 1546 1547 1547 1548 1550 1553 1555 1555 1555 1555 1555 1555 1555 1555 1555 1554 1554 1554 1554 1553 1553 1555 1555 1555 1555 1555 1554 1553 1552 1553 1554 1555 1555 1554 1554 1554 1553 1553 1554 1553 1553 1554 1554 1554 1554 1554 1555 1554 1553 1553 1553 1552 1551 1550
1505 1506 1507 1507 1507 1508 1510 1512 1514 1516 1517 1519 1521 1522 1524 1525 1526 1528 1529 1531 1533 1534 1536 1537 1538 1539 1541 1542 1543 1543 1544 1545 1546 1547 1549 1552 1554 1554 1554 1554 1554 1553 1553 1553 1553 1553 1552 1552 1552 1552 1551 1552 1553 1552 1552 1552 1551 1551 1551 1550 1550 1551 1551 1551 1551 1551 1551 1550 1550 1550 1550 1550 1550 1550 1550 1551 1551 1551 1550 1549 1549 1550 1549 1548 1547
1508 1509 1510 1510 1510 1511 1513 1514 1516 1517 1519 1520 1521 1523 1524 1526 1527 1529 1530 1531 1533 1534 1535 1536 1537 1538 1540 1541 1542 1543 1543 1544 1545 1547 1549 1551 1552 1552 1552 1552 1551 1551 1551 1551 1551 1551 1551 1550 1550 1550 1550 1550 1550 1550 1550 1550 1549 1549 1549 1548 1548 1548 1548 1548 1547 1547 1547 1547 1546 1547 1547 1547 1547 1546 1546 1547 1547 1547 1546 1545 1546 1546 1545 1544 1544
1511 1511 1512 1512 1513 1514 1515 1517 1518 1519 1520 1521 1523 1524 1526 1527 1528 1530 1531 1532 1533 1534 1535 1536 1537 1538 1539 1540 1541 1541 1542 1543 1544 1546 1547 1549 1549 1549 1549 1549 1549 1549 1549 1549 1549 1549 1549 1548 1548 1548 1548 1548 1548 1548 1548 1548 1548 1547 1547 1547 1546 1546 1545 1545 1544 1544 1544 1544 1544 1543 1543 1543 1543 1542 1542 1542 1542 1542 1542 1542 1542 1541 1541 1541 1541
1513 1514 1514 1515 1516 1517 1518 1519 1520 1521 1522 1523 1524 1525 1527 1528 1529 1530 1531 1532 1534 1535 1535 1536 1537 1538 1538 1539 1540 1541 1541 1542 1543 1544 1545 1546 1546 1547 1546 1547 1547 1547 1547 1547 1547 1547 1547 1546 1545 1546 1547 1546 1546 1546 1546 1546 1545 1545 1545 1544 1544 1543 1542 1541 1541 1541 1541 1541 1541 1541 1540 1540 1539 1539 1538 1538 1537 1538 1538 1538 1538 1538 1537 1537 1537
1516 1516 1517 1518 1518 1519 1520 1521 1522 1523 1524 1525 1525 1526 1527 1528 1529 1530 1532 1533 1534 1534 1535 1536 1536 1537 1538 1538 1539 1540 1540 1541 1542 1542 1543 1543 1543 1544 1543 1544 1545 1545 1544 1544 1544 1544 1544 1543 1542 1543 1544 1544 1544 1544 1543 1543 1542 1542 1542 1542 1541 1540 1539 1538 1538 1538 1538 1538 1538 1538 1538 1537 1536 1536 1535 1534 1533 1533 1534 1534 1534 1534 1534 1533 1533
1519 1519 1519 1520 1520 1521 1522 1523 1524 1524 1525 1526 1526 1527 1528 1529 1530 1531 1532 1533 1534 1534 1535 1536 1536 1537 1537 1538 1538 1538 1539 1539 1540 1540 1541 1541 1541 1541 1541 1541 1542 1542 1542 1542 1541 1541 1542 1540 1538 1539 1540 1541 1541 1541 1540 1539 1539 1539 1539 1538 1537 1536 1535 1535 1534 1534 1534 1534 1534 1534 1534 1533 1533 1532 1532 1530 1529 1529 1529 1530 1530 1530 1530 1529 1529
1521 1521 1521 1522 1522 1523 1524 1524 1525 1525 1526 1526 1527 1527 1528 1529 1530 1531 1532 1533 1535 1535 1535 1536 1537 1537 1538 1538 1538 1537 1537 1538 1538 1539 1539 1539 1538 1539 1538 1538 1539 1539 1539 1539 1538 1538 1538 1537 1536 1536 1536 1537 1537 1536 1536 1535 1535 1534 1534 1534 1533 1532 1531 1531 1530 1530 1530 1529 1529 1529 1529 1529 1529 1529 1529 1528 1526 1525 1526 1526 1527 1527 1526 1525 1525
1522 1522 1522 1523 1523 1524 1524 1525 1525 1526 1526 1527 1527 1528 1529 1530 1531 1532 1532 1533 1534 1535 1536 1536 1537 1537 1538 1538 1538 1537 1536 1536 1536 1536 1536 1537 1536 1536 1536 1536 1536 1536 1536 1535 1535 1534 1534 1534 1533 1533 1533 1532 1532 1532 1532 1531 1531 1530 1530 1529 1528 1528 1527 1527 1526 1526 1525 1525 1525 1525 1525 1525 1525 1524 1524 1524 1523 1522 1523 1523 1524 1524 1522 1521 1521
1523 1523 1523 1523 1524 1524 1525 1525 1526 1526 1527 1527 1528 1528 1529 1530 1531 1532 1532 1533 1534 1535 1535 1536 1537 1537 1537 1538 1538 1537 1537 1537 1536 1535 1534 1535 1535 1534 1534 1534 1534 1534 1533 1532 1531 1531 1531 1531 1531 1530 1529 1529 1529 1528 1528 1528 1527 1527 1526 1526 1525 1525 1524 1524 1524 1523 1523 1522 1523 1523 1523 1523 1521 1519 1519 1520 1520 1520 1520 1520 1520 1520 1519 1519 1519
1525 1524 1524 1524 1524 1525 1525 1525 1526 1526 1527 1527 1528 1528 1529 1530 1530 1531 1531 1532 1533 1534 1535 1535 1536 1536 1537 1537 1537 1537 1537 1536 1535 1533 1533 1533 1533 1533 1532 1532 1531 1531 1531 1529 1529 1528 1528 1528 1527 1527 1526 1526 1526 1525 1525 1525 1524 1524 1523 1523 1523 1522 1522 1521 1521 1522 1521 1520 1520 1521 1521 1520 1518 1516 1516 1518 1517 1517 1517 1518 1518 1518 1518 1518 1517
1527 1527 1526 1526 1526 1526 1526 1526 1527 1527 1527 1527 1528 1529 1529 1530 1530 1530 1531 1531 1532 1532 1533 1533 1533 1534 1535 1535 1536 1537 1536 1534 1533 1533 1532 1532 1532 1531 1531 1531 1530 1530 1529 1528 1527 1527 1526 1525 1525 1524 1524 1524 1524 1524 1524 1523 1523 1523 1523 1523 1522 1522 1521 1521 1520 1519 1518 1518 1518 1518 1517 1516 1515 1515 1515 1515 1515 1514 1515 1516 1516 1517 1517 1517 1516
1530 1529 1529 1528 1528 1528 1528 1528 1528 1528 1529 1529 1529 1530 1530 1530 1530 1531 1531 1531 1531 1531 1531 1532 1532 1532 1533 1533 1533 1534 1534 1532 1532 1532 1532 1531 1531 1531 1530 1530 1529 1529 1528 1527 1526 1526 1525 1524 1523 1523 1524 1524 1524 1524 1524 1524 1523 1523 1523 1523 1522 1522 1521 1520 1519 1517 1517 1516 1515 1515 1515 1514 1513 1513 1512 1512 1513 1512 1513 1514 1515 1515 1515 1515 1515
1532 1531 1530 1530 1530 1530 1530 1530 1530 1531 1531 1531 1531 1531 1531 1531 1531 1531 1531 1531 1532 1532 1532 1532 1532 1532 1532 1532 1532 1532 1532 1532 1532 1532 1531 1531 1531 1530 1529 1529 1528 1527 1527 1526 1525 1524 1523 1523 1523 1524 1524 1524 1524 1524 1523 1523 1522 1522 1521 1521 1520 1520 1520 1519 1517 1515 1514 1514 1513 1512 1513 1513 1512 1511 1511 1511 1511 1510 1511 1512 1513 1513 1514 1514 1514
1534 1532 1531 1531 1531 1532 1532 1532 1533 1533 1533 1533 1533 1533 1533 1533 1533 1533 1533 1533 1533 1532 1532 1532 1532 1532 1532 1532 1532 1532 1531 1531 1531 1531 1530 1530 1530 1529 1528 1528 1527 1526 1526 1525 1524 1524 1523 1524 1525 1525 1525 1524 1524 1523 1523 1522 1521 1520 1520 1519 1519 1519 1518 1517 1515 1513 1512 1512 1512 1511 1511 1511 1511 1510 1510 1510 1509 1509 1509 1510 1511 1513 1514 1514 1514
1535 1535 1534 1533 1533 1533 1534 1534 1534 1535 1535 1535 1535 1535 1535 1535 1535 1535 1535 1534 1534 1534 1533 1533 1533 1533 1532 1532 1531 1531 1531 1530 1530 1530 1530 1529 1529 1529 1528 1527 1526 1525 1525 1524 1524 1524 1524 1525 1525 1525 1524 1524 1523 1522 1521 1520 1520 1519 1519 1518 1518 1518 1516 1514 1513 1512 1511 1510 1510 1509 1509 1509 1509 1509 1509 1509 1508 1508 1508 1509 1511 1512 1513 1514 1514
1535 1535 1535 1535 1535 1535 1535 1535 1536 1536 1536 1536 1536 1536 1536 1536 1536 1536 1535 1536 1535 1535 1535 1534 1534 1533 1533 1532 1532 1531 1531 1530 1530 1530 1530 1529 1529 1528 1527 1526 1525 1524 1523 1523 1523 1524 1525 1525 1525 1524 1524 1523 1522 1521 1519 1519 1519 1519 1518 1518 1518 1517 1515 1512 1512 1511 1510 1509 1509 1508 1507 1507 1507 1507 1507 1507 1507 1508 1509 1510 1511 1512 1513 1513 1514
1536 1536 1535 1535 1536 1537 1536 1536 1536 1536 1536 1536 1536 1537 1537 1537 1537 1536 1536 1536 1536 1536 1535 1535 1534 1534 1533 1532 1532 1531 1531 1530 1530 1529 1529 1529 1528 1527 1526 1525 1524 1523 1523 1523 1523 1524 1524 1524 1523 1523 1523 1522 1521 1520 1519 1518 1518 1518 1518 1517 1517 1516 1513 1511 1510 1509 1508 1507 1507 1505 1505 1505 1506 1506 1506 1507 1508 1509 1510 1511 1512 1512 1513 1514 1514
1537 1537 1537 1536 1537 1537 1537 1537 1537 1537 1537 1537 1537 1537 1537 1537 1537 1538 1537 1537 1537 1536 1536 1535 1534 1534 1533 1532 1531 1531 1530 1530 1530 1529 1529 1529 1528 1527 1526 1525 1524 1523 1523 1523 1522 1522 1522 1522 1521 1521 1520 1520 1520 1519 1519 1518 1518 1517 1516 1515 1514 1513 1512 1510 1508 1507 1506 1505 1505 1504 1504 1505 1506 1507 1508 1508 1509 1510 1510 1511 1512 1513 1514 1515 1514
1538 1538 1538 1538 1538 1538 1538 1537 1536 1536 1536 1537 1537 1538 1538 1538 1538 1538 1538 1538 1537 1537 1537 1536 1535 1534 1533 1532 1531 1531 1530 1530 1530 1529 1529 1529 1528 1527 1526 1525 1524 1523 1522 1522 1521 1520 1520 1520 1519 1519 1518 1518 1518 1518 1518 1517 1517 1516 1515 1513 1512 1511 1510 1509 1507 1506 1505 1504 1504 1504 1505 1506 1507 1508 1509 1509 1510 1511 1511 1512 1513 1514 1515 1515 1514
1539 1539 1539 1538 1538 1538 1538 1537 1536 1536 1535 1536 1537 1538 1538 1538 1538 1538 1538 1538 1537 1538 1538 1537 1537 1536 1535 1533 1532 1532 1531 1531 1530 1530 1529 1528 1527 1526 1525 1524 1523 1522 1522 1521 1520 1519 1519 1518 1518 1517 1517 1517 1517 1517 1516 1516 1515 1514 1513 1511 1509 1508 1508 1507 1507 1507 1506 1505 1504 1505 1506 1507 1508 1509 1510 1510 1510 1511 1513 1514 1514 1515 1515 1514 1513
1539 1538 1538 1538 1537 1537 1538 1538 1537 1537 1536 1537 1537 1538 1538 1538 1538 1538 1538 1537 1537 1538 1538 1538 1537 1536 1535 1534 1534 1533 1533 1531 1530 1530 1529 1528 1527 1526 1525 1524 1523 1522 1521 1521 1520 1519 1519 1518 1517 1517 1516 1516 1516 1516 1515 1515 1514 1513 1512 1510 1509 1507 1507 1507 1507 1508 1508 1507 1507 1507 1508 1508 1509 1509 1511 1512 1511 1512 1513 1515 1515 1515 1515 1514 1514
1538 1537 1537 1537 1537 1537 1538 1538 1537 1537 1538 1538 1537 1538 1538 1538 1538 1538 1538 1538 1538 1538 1538 1538 1537 1535 1534 1534 1534 1534 1533 1532 1531 1530 1529 1528 1527 1526 1525 1524 1523 1522 1522 1521 1520 1519 1519 1518 1517 1517 1516 1515 1515 1515 1515 1514 1513 1511 1510 1510 1509 1508 1508 1508 1508 1509 1509 1509 1508 1509 1509 1510 1510 1510 1512 1513 1512 1512 1514 1516 1516 1516 1516 1515 1515
1539 1537 1537 1537 1537 1537 1537 1538 1538 1538 1538 1538 1537 1538 1538 1538 1538 1538 1538 1538 1538 1538 1538 1537 1536 1535 1534 1534 1534 1533 1534 1533 1531 1530 1529 1528 1527 1527 1526 1525 1524 1523 1522 1521 1520 1520 1519 1518 1517 1516 1515 1514 1514 1514 1514 1513 1512 1511 1510 1510 1510 1509 1509 1509 1510 1511 1510 1510 1510 1511 1511 1511 1511 1512 1513 1513 1513 1514 1516 1517 1517 1517 1516 1516 1516
1539 1538 1537 1536 1536 1537 1537 1537 1537 1537 1537 1537 1537 1537 1537 1538 1538 1538 1538 1538 1538 1538 1538 1537 1536 1535 1535 1534 1534 1534 1534 1534 1532 1530 1530 1529 1528 1527 1527 1526 1525 1524 1523 1522 1521 1520 1519 1518 1517 1516 1515 1514 1514 1513 1513 1513 1513 1513 1513 1512 1512 1512 1512 1512 1512 1512 1512 1512 1512 1512 1513 1513 1513 1514 1514 1514 1515 1516 1517 1518 1518 1517 1517 1516 1516
1539 1539 1538 1537 1536 1537 1537 1537 1537 1537 1537 1537 1537 1537 1537 1538 1538 1538 1538 1538 1538 1538 1538 1538 1537 1536 1536 1535 1535 1535 1535 1534 1533 1531 1531 1530 1530 1529 1528 1527 1527 1526 1524 1523 1522 1521 1520 1519 1518 1516 1515 1515 1514 1514 1514 1514 1515 1515 1515 1515 1515 1515 1515 1515 1515 1515 1515 1514 1514 1514 1514 1514 1515 1515 1515 1516 1517 1517 1517 1517 1517 1518 1517 1516 1515
1539 1539 1538 1538 1538 1537 1537 1537 1537 1537 1537 1536 1536 1537 1537 1537 1537 1537 1538 1538 1538 1538 1538 1538 1538 1538 1537 1537 1537 1536 1536 1535 1534 1533 1532 1532 1531 1531 1530 1529 1528 1527 1526 1525 1523 1522 1521 1520 1519 1518 1517 1516 1516 1515 1516 1516 1516 1516 1517 1517 1517 1517 1517 1517 1517 1517 1516 1516 1515 1515 1515 1515 1515 1516 1516 1516 1517 1517 1517 1517 1518 1518 1517 1516 1516
1539 1539 1538 1538 1538 1537 1537 1537 1537 1537 1536 1536 1536 1536 1537 1537 1537 1538 1538 1538 1538 1538 1538 1539 1539 1539 1539 1539 1538 1538 1537 1536 1535 1534 1534 1533 1532 1532 1531 1530 1530 1529 1527 1526 1525 1524 1523 1522 1521 1520 1519 1518 1518 1517 1517 1518 1518 1518 1518 1518 1518 1518 1518 1518 1518 1518 1517 1517 1517 1517 1517 1517 1517 1517 1517 1517 1518 1518 1518 1517 1517 1517 1517 1516 1517
1538 1538 1538 1538 1538 1538 1537 1537 1537 1536 1535 1535 1536 1537 1537 1537 1538 1538 1538 1538 1539 1539 1539 1539 1539 1540 1540 1540 1539 1539 1538 1537 1537 1536 1536 1535 1534 1533 1532 1531 1530 1529 1528 1527 1526 1525 1524 1523 1523 1522 1521 1520 1520 1519 1519 1519 1520 1520 1520 1520 1520 1520 1519 1519 1519 1519 1518 1518 1518 1518 1518 1518 1518 1518 1518 1518 1519 1518 1518 1517 1517 1517 1517 1517 1517
1538 1538 1538 1538 1538 1537 1537 1537 1537 1536 1536 1536 1536 1537 1537 1537 1538 1538 1538 1539 1539 1539 1539 1540 1540 1540 1540 1540 1540 1540 1539 1539 1538 1538 1537 1536 1535 1534 1533 1532 1531 1530 1530 1529 1528 1527 1526 1525 1524 1524 1523 1522 1522 1522 1521 1521 1521 1521 1521 1521 1521 1520 1520 1520 1520 1520 1519 1519 1520 1520 1520 1519 1519 1518 1518 1518 1518 1518 1517 1517 1517 1517 1517 1517 1517
1537 1537 1537 1537 1537 1537 1537 1537 1536 1536 1536 1536 1536 1537 1537 1538 1538 1538 1539 1539 1539 1539 1540 1540 1540 1540 1540 1540 1540 1540 1540 1540 1539 1539 1538 1537 1536 1534 1533 1533 1532 1531 1531 1530 1529 1529 1528 1527 1526 1525 1525 1524 1524 1524 1523 1523 1522 1522 1522 1522 1521 1521 1521 1520 1520 1521 1521 1521 1521 1521 1521 1521 1520 1520 1519 1519 1519 1518 1518 1518 1518 1518 1518 1518 1517
1536 1537 1537 1537 1537 1537 1537 1537 1536 1536 1536 1537 1536 1537 1537 1538 1538 1539 1539 1539 1539 1540 1540 1540 1541 1541 1541 1541 1541 1541 1540 1540 1540 1539 1539 1538 1536 1534 1534 1533 1532 1532 1532 1531 1530 1530 1529 1528 1528 1527 1526 1526 1525 1525 1524 1524 1523 1523 1522 1522 1522 1522 1521 1521 1521 1521 1521 1521 1521 1521 1521 1521 1521 1520 1520 1519 1519 1519 1519 1519 1519 1519 1518 1518 1517
1535 1536 1536 1536 1537 1537 1537 1537 1536 1536 1537 1537 1537 1537 1538 1538 1538 1539 1539 1539 1540 1540 1540 1541 1541 1541 1541 1541 1541 1541 1541 1541 1540 1540 1539 1538 1537 1535 1534 1534 1533 1533 1532 1532 1531 1530 1530 1529 1529 1528 1527 1527 1526 1526 1525 1525 1524 1524 1523 1523 1523 1522 1522 1522 1522 1522 1522 1522 1522 1522 1522 1521 1520 1520 1520 1520 1519 1519 1519 1519 1519 1518 1518 1518 1518
1534 1535 1536 1536 1536 1536 1536 1537 1537 1537 1537 1537 1537 1537 1538 1538 1539 1539 1539 1539 1540 1540 1540 1541 1541 1541 1541 1542 1541 1541 1541 1541 1540 1540 1539 1538 1537 1536 1535 1534 1534 1533 1533 1532 1532 1531 1531 1530 1530 1529 1528 1528 1527 1527 1526 1526 1525 1525 1525 1524 1524 1524 1524 1523 1523 1523 1523 1522 1522 1522 1522 1521 1521 1520 1520 1520 1520 1520 1519 1518 1518 1518 1518 1518 1518
1534 1534 1535 1535 1536 1536 1536 1536 1537 1537 1537 1537 1537 1537 1538 1538 1538 1539 1539 1539 1540 1540 1540 1540 1541 1541 1541 1541 1541 1541 1541 1541 1540 1540 1539 1538 1537 1536 1535 1535 1534 1534 1533 1533 1533 1532 1532 1531 1531 1530 1530 1529 1529 1528 1528 1527 1527 1526 1526 1526 1525 1525 1525 1524 1524 1524 1523 1523 1523 1522 1522 1521 1521 1520 1520 1520 1520 1519 1518 1518 1517 1517 1517 1517 1517